| time (UTC) | temp F | wind direction | speed MPH | gust MPH | rain 1hr in | rain 24hr in | rain mn in | humidity % | barometer mb |
| 20260505041530 | 55 | 0.0 | 0.0 | 0.04 | 0.15 | 0.06 | 99 | ||
| 20260505040529 | 55 | 0.0 | 0.0 | 0.04 | 0.15 | 0.06 | 99 | ||
| 20260505035534 | 55 | 0.0 | 0.0 | 0.05 | 0.15 | 0.06 | 99 | ||
| 20260505034526 | 56 | 0.0 | 0.0 | 0.04 | 0.14 | 0.05 | 99 | ||
| 20260505033536 | 56 | 0.0 | 0.0 | 0.04 | 0.14 | 0.05 | 99 | ||
| 20260505032523 | 56 | 0.0 | 0.0 | 0.04 | 0.14 | 0.05 | 99 | ||
| 20260505031536 | 56 | 0.0 | 0.0 | 0.01 | 0.12 | 0.02 | 99 | ||
| 20260505030522 | 55 | 0.0 | 0.0 | 0.01 | 0.12 | 0.02 | 99 | ||
| 20260505025534 | 55 | 0.0 | 0.0 | 0.00 | 0.11 | 0.01 | 99 | ||
| 20260505024528 | 55 | 0.0 | 0.0 | 0.00 | 0.11 | 0.01 | 99 | ||
| 20260505023524 | 55 | 0.0 | 0.0 | 0.00 | 0.11 | 0.01 | 99 | ||
| 20260505022526 | 55 | 0.0 | 0.0 | 0.00 | 0.11 | 0.01 | 99 | ||
| 20260505021531 | 56 | 0.0 | 0.0 | 0.00 | 0.11 | 0.01 | 99 | ||
| 20260505020523 | 56 | 0.0 | 0.0 | 0.00 | 0.11 | 0.01 | 99 | ||
| 20260505015522 | 56 | 0.0 | 0.0 | 0.00 | 0.11 | 0.01 | 99 | ||
| 20260505014523 | 55 | 0.0 | 0.0 | 0.00 | 0.11 | 0.01 | 99 | ||
| 20260505013531 | 55 | 0.0 | 0.0 | 0.00 | 0.11 | 0.01 | 99 | ||
| 20260505012529 | 55 | 0.0 | 0.0 | 0.01 | 0.11 | 0.01 | 99 | ||
| 20260505011534 | 55 | 0.0 | 0.0 | 0.01 | 0.11 | 0.01 | 99 | ||
| 20260505010526 | 55 | 0.0 | 0.0 | 0.01 | 0.11 | 0.01 | 99 | ||
| 20260505005531 | 55 | 0.0 | 0.0 | 0.01 | 0.11 | 0.01 | 99 | ||
| 20260505004523 | 55 | 0.0 | 0.0 | 0.01 | 0.11 | 0.01 | 99 | ||
| 20260505003534 | 55 | 0.0 | 0.0 | 0.01 | 0.11 | 0.01 | 99 | ||
| 20260505002522 | 56 | 0.0 | 0.0 | 0.00 | 0.09 | 0.00 | 99 | ||
| 20260505001532 | 56 | 0.0 | 0.0 | 0.00 | 0.09 | 0.00 | 99 | ||
| 20260505000526 | 56 | 0.0 | 0.0 | 0.00 | 0.09 | 0.00 | 99 | ||
| 20260504235530 | 56 | 0.0 | 0.0 | 0.00 | 0.09 | 0.00 | 99 | ||
| 20260504234523 | 56 | 0.0 | 0.0 | 0.00 | 0.09 | 0.00 | 99 | ||
| 20260504233520 | 56 | 0.0 | 0.0 | 0.00 | 0.09 | 0.00 | 98 | ||
| 20260504232522 | 56 | 0.0 | 0.0 | 0.00 | 0.09 | 0.00 | 98 | ||
| 20260504231531 | 56 | 0.0 | 0.0 | 0.00 | 0.09 | 0.00 | 98 | ||
| 20260504230522 | 56 | 0.0 | 0.0 | 0.00 | 0.09 | 0.00 | 98 | ||
| 20260504225531 | 56 | 0.0 | 0.0 | 0.00 | 0.09 | 0.00 | 98 | ||
| 20260504224538 | 56 | 0.0 | 0.0 | 0.00 | 0.09 | 0.00 | 98 | ||
| 20260504223533 | 56 | 0.0 | 0.0 | 0.00 | 0.09 | 0.00 | 98 | ||
| 20260504222526 | 56 | 0.0 | 0.0 | 0.00 | 0.09 | 0.00 | 98 | ||
| 20260504221531 | 56 | 0.0 | 0.0 | 0.00 | 0.09 | 0.00 | 98 | ||
| 20260504220523 | 56 | 0.0 | 0.0 | 0.00 | 0.09 | 0.00 | 98 | ||
| 20260504215534 | 56 | 0.0 | 0.0 | 0.00 | 0.09 | 0.09 | 98 | ||
| 20260504214526 | 56 | 0.0 | 0.0 | 0.00 | 0.09 | 0.09 | 98 | ||
| 20260504213526 | 56 | 0.0 | 0.0 | 0.00 | 0.09 | 0.09 | 98 | ||
| 20260504212523 | 56 | 0.0 | 0.0 | 0.00 | 0.09 | 0.09 | 98 | ||
| 20260504211525 | 56 | 0.0 | 0.0 | 0.00 | 0.09 | 0.09 | 97 | ||
| 20260504210526 | 57 | 156 | 1.0 | 2.0 | 0.01 | 0.09 | 0.09 | 97 | |
| 20260504205534 | 57 | 190 | 1.0 | 2.0 | 0.01 | 0.09 | 0.09 | 97 | |
| 20260504204526 | 57 | 0.0 | 0.0 | 0.01 | 0.09 | 0.09 | 97 | ||
| 20260504203526 | 57 | 0.0 | 0.0 | 0.01 | 0.09 | 0.09 | 97 | ||
| 20260504202523 | 57 | 0.0 | 0.0 | 0.01 | 0.09 | 0.09 | 97 | ||
| 20260504201531 | 57 | 0.0 | 0.0 | 0.01 | 0.09 | 0.09 | 97 | ||
| 20260504200523 | 57 | 0.0 | 0.0 | 0.01 | 0.08 | 0.08 | 97 | ||
| 20260504195526 | 57 | 171 | 0.0 | 1.0 | 0.01 | 0.08 | 0.08 | 97 | |
| 20260504194527 | 57 | 0.0 | 0.0 | 0.02 | 0.08 | 0.08 | 97 | ||
| 20260504193534 | 57 | 340 | 0.0 | 1.0 | 0.02 | 0.08 | 0.08 | 96 | |
| 20260504192523 | 57 | 0.0 | 0.0 | 0.05 | 0.08 | 0.08 | 96 | ||
| 20260504191533 | 58 | 341 | 0.0 | 1.0 | 0.05 | 0.08 | 0.08 | 96 | |
| 20260504190525 | 58 | 348 | 0.0 | 1.0 | 0.06 | 0.07 | 0.07 | 95 | |
| 20260504185522 | 58 | 344 | 0.0 | 2.0 | 0.07 | 0.07 | 0.07 | 95 | |
| 20260504184523 | 58 | 0.0 | 0.0 | 0.06 | 0.06 | 0.06 | 94 | ||
| 20260504183534 | 58 | 0.0 | 0.0 | 0.06 | 0.06 | 0.06 | 94 | ||
| 20260504182523 | 58 | 0.0 | 0.0 | 0.04 | 0.04 | 0.04 | 93 | ||
| 20260504181521 | 59 | 341 | 0.0 | 2.0 | 0.04 | 0.04 | 0.04 | 92 | |
| 20260504180523 | 59 | 358 | 0.0 | 2.0 | 0.01 | 0.01 | 0.01 | 90 | |
| 20260504175531 | 60 | 278 | 0.0 | 2.0 | 0.00 | 0.00 | 0.00 | 88 | |
| 20260504174536 | 60 | 341 | 2.0 | 4.0 | 0.00 | 0.00 | 0.00 | 87 | |
| 20260504173531 | 61 | 341 | 2.0 | 4.0 | 0.00 | 0.00 | 0.00 | 85 | |
| 20260504172523 | 62 | 344 | 3.0 | 7.0 | 0.00 | 0.00 | 0.00 | 80 | |
| 20260504171532 | 63 | 340 | 4.0 | 7.0 | 0.00 | 0.00 | 0.00 | 76 | |
| 20260504170525 | 65 | 340 | 3.0 | 4.0 | 0.00 | 0.00 | 0.00 | 71 | |
| 20260504150523 | 72 | 341 | 0.0 | 2.0 | 0.00 | 0.00 | 0.00 | 54 | |
| 20260504140526 | 74 | 204 | 1.0 | 4.0 | 0.00 | 0.00 | 0.00 | 49 | |
| 20260504130526 | 75 | 168 | 1.0 | 3.0 | 0.00 | 0.00 | 0.00 | 48 | |
| 20260504110523 | 72 | 147 | 1.0 | 2.0 | 0.00 | 0.00 | 0.00 | 52 | |
| 20260504100526 | 73 | 161 | 1.0 | 4.0 | 0.00 | 0.00 | 0.00 | 53 | |
| 20260504081532 | 61 | 175 | 1.0 | 3.0 | 0.00 | 0.00 | 0.00 | 75 | |
| 20260504080526 | 60 | 184 | 2.0 | 4.0 | 0.00 | 0.00 | 0.00 | 75 | |
| 20260504050523 | 52 | 148 | 0.0 | 2.0 | 0.00 | 0.00 | 0.00 | 86 | |
| 20260504045523 | 51 | 156 | 0.0 | 2.0 | 0.00 | 0.00 | 0.00 | 88 |